User: anonymous   Login
Location: Melbourne
(37.8170°S, 144.9670°E)
Time: 03:51:48
(UTC+11:00)
Language:

Cosmos 1656 Rocket - Orbit

View from above orbital plane
View from above orbital plane
View from above satellite
View from above satellite

Ground track
Ground track

The orbit data is extracted from the following two-line orbital elements,

1 15772U 85042D   14297.24393109  .00000271  00000-0  14574-3 0  5085
2 15772 071.1093 215.7713 0033246 106.8869 054.3287 14.21042183524070
Epoch (UTC): 24 October 2014 05:51:15
Eccentricity: 0.0033246
inclination: 71.1093°
perigee height: 798 km
apogee height: 846 km
right ascension of ascending node: 215.7713°
argument of perigee: 106.8869°
revolutions per day: 14.21042183
mean anomaly at epoch: 54.3287°
orbit number at epoch: 52407

The dashed part of the orbit path shows where the satellite is in the earth's shadow,  

DLR